Location: Unnamed
(23.5608°S, 46.6833°W)
Time: 05:49:51
(UTC-03:00)

Tiros 4 - Pass Details

Date: 12 December 2023
Orbit: 683 x 792 km, 48.3° (Epoch: 24 February)

Event Time Altitude Azimuth Distance (km) Brightness Sun altitude
Exits shadow 23:27:33 15° 206° (SSW) 2,047 9.7 -42.6°
Drops below altitude 10° 23:30:17 10° 176° (S) 2,372 10.1 -42.7°
Sets 23:33:56 0° 153° (SSE) 3,307 10.9 -42.9°
